轨道通信卫星FM115星 (ORBCOMM FM115)

导读

ORBCOMM FM 115由ORB相关机构发射,发射时间为2015年12月22日8时整,归属ORBCOMM低轨通信卫星系统。该系统主要提供全球物联网、M2M通信服务,支持船舶跟踪、野外设备监控等业务,为偏远地区与移动目标的数据传输提供持续稳定的卫星通信支撑,是商业低轨卫星通信网络的组成部分。

Basic Information
目录编号:
41186
目录名称:
ORBCOMM FM 115
国际标识:
2015-081H
轨道中心:
EARTH
卫星名称:
轨道通信卫星FM115星
卫星全名:
轨道通信卫星FM115星 (ORBCOMM FM115)
卫星状态:
在轨 (已飞行3916 天)
发射日期:
2015-12-22 UTC
国别 :
(ORB)
星等 :
--
This satellite is enrolled in the Space Conjunction Data Service (SCDS) and the current flight risk assessment level is: No High Risk
Orbit Information
数据来源 国际轨道数据 AOE轨道数据
星历时间 2026-09-08T19:13:04+0800
3天前
查看轨道信息
2026-09-05T11:00:00+0800
6天前
查看轨道信息
半长轴 7060.504km 7060.525km
偏心率 0.0001115 0.0000038
轨道倾角 46.998° 47.000°
近地点辐角 311.197° 56.512°
升交点赤经 65.901° 81.824°
平近点角 48.882° 320.093°
近地点 681.579km 682.361km
远地点 683.155km 682.415km
周期 98.404分钟 98.405分钟
每日圈数 14.633534 14.63347
Detailed Information
固有亮度:
8
最大亮度:
6.7
平衡模式:
三轴稳定
覆盖范围:
全球
运营商:
轨道通信公司
运营商所在国:
美国
使用方式:
暂无
Satellite Introduction
轨道通信FM(Orbcomm FM)是一系列低地球轨道通信卫星,由美国卫星通信公司 Orbcomm运营。 截至2015年12月,已有63颗此类卫星绕地球运行。该卫星仍在工作。
2D Orbit Map
3D Orbit Map
Orbit Altitude Analysis Chart
Orbit Inclination Analysis Chart
Orbit Comprehensive Analysis Chart
View Comprehensive Chart
Miss Distance Evolution Trend with All Objects
Collision Probability Evolution Trend with All Objects